GW1637 Weather Reports


time (UTC)temp
C
wind
direction
speed
KPH
gust
KPH
rain 1hr
cm
rain 24hr
cm
rain mn
cm
humidity
%
barometer
mb
20260505101815 4 24 4.8 16.1 0.05 0.03 0.03 93 1011.5
20260505101311 4 357 3.2 17.7 0.00 0.00 0.00 93 1011.5
20260505100807 5 356 8.0 14.5 0.05 0.00 0.00 93 1011.6
20260505100304 5 350 4.8 16.1 0.05 0.00 0.00 93 1011.5
20260505095759 5 0 4.8 22.5 0.00 0.00 0.00 93 1011.5
20260505095257 5 22 6.4 11.3 0.00 0.00 0.00 93 1011.7
20260505094752 5 8 11.3 12.9 0.00 0.00 0.00 93 1011.3
20260505094249 5 320 6.4 11.3 0.00 0.00 0.00 93 1011.2
20260505093745 5 0 3.2 29.0 0.00 0.00 0.00 93 1011.3
20260505093243 5 15 11.3 14.5 0.00 0.00 0.00 92 1011.3
20260505092740 5 292 9.7 25.7 0.00 0.00 0.00 92 1011.6
20260505092238 5 289 1.6 12.9 0.00 0.00 0.00 92 1011.5
20260505091735 5 334 4.8 17.7 0.00 0.00 0.00 92 1011.6
20260505091233 5 309 4.8 12.9 0.00 0.00 0.00 92 1011.1
20260505090730 5 270 3.2 14.5 0.00 0.00 0.00 92 1011.1
20260505090229 5 324 4.8 17.7 0.00 0.00 0.00 92 1011.1
20260505085726 5 352 9.7 12.9 0.00 0.00 0.00 92 1011.3
20260505085224 5 348 9.7 9.7 0.00 0.00 0.00 92 1011.2
20260505084721 5 12 3.2 6.4 0.00 0.00 0.00 92 1011.5
20260505084220 5 347 9.7 19.3 0.00 0.00 0.00 92 1011.2
20260505083716 6 292 11.3 19.3 0.00 0.00 0.00 92 1011.1
20260505083213 7 327 4.8 8.0 0.00 0.00 0.00 93 1011.0
20260505082709 7 28 0.0 3.2 0.00 0.00 0.00 93 1010.7
20260505082207 7 331 0.0 1.6 0.00 0.00 0.00 93 1011.2
20260505081702 7 345 0.0 3.2 0.00 0.00 0.00 93 1011.1
20260505081200 7 0 0.0 3.2 0.00 0.00 0.00 93 1011.2
20260505080657 7 331 0.0 3.2 0.00 0.00 0.00 93 1011.1
20260505080152 7 254 0.0 0.0 0.00 0.00 0.00 93 1011.1
20260505075648 7 254 0.0 0.0 0.00 0.00 0.00 93 1010.7
20260505075146 7 187 0.0 0.0 0.00 0.00 0.00 93 1010.7
20260505074643 7 106 0.0 0.0 0.00 0.00 0.00 93 1010.7
20260505074139 7 106 0.0 1.6 0.00 0.00 0.00 92 1011.0
20260505073637 7 144 0.0 3.2 0.00 0.00 0.00 92 1011.0
20260505073135 7 192 1.6 3.2 0.00 0.00 0.00 92 1011.1
20260505072630 7 209 1.6 3.2 0.00 0.00 0.00 93 1010.9
20260505072127 7 151 1.6 4.8 0.00 0.00 0.00 93 1010.7
20260505071623 7 194 0.0 4.8 0.00 0.00 0.00 93 1010.9
20260505071121 7 132 0.0 3.2 0.00 0.00 0.00 93 1011.1
20260505070618 7 157 1.6 3.2 0.00 0.00 0.00 93 1011.2
20260505070114 7 215 0.0 3.2 0.00 0.00 0.00 93 1011.5
20260505065610 7 225 3.2 3.2 0.00 0.00 0.00 93 1011.3
20260505065107 7 234 0.0 3.2 0.00 0.00 0.00 93 1011.2
20260505064604 7 160 1.6 3.2 0.00 0.00 0.00 93 1011.6
20260505064103 7 180 0.0 1.6 0.00 0.00 0.00 93 1011.3
20260505063559 7 254 0.0 3.2 0.00 0.00 0.00 93 1011.3
20260505063055 7 165 0.0 3.2 0.00 0.00 0.00 93 1011.0
20260505062551 7 229 1.6 1.6 0.00 0.00 0.00 93 1011.3
20260505062049 7 186 0.0 3.2 0.00 0.00 0.00 93 1011.2
20260505061546 7 209 0.0 3.2 0.00 0.00 0.00 93 1011.2
20260505061044 7 90 0.0 1.6 0.00 0.00 0.00 92 1011.2
20260505060541 7 165 0.0 1.6 0.00 0.00 0.00 92 1011.5
20260505060038 7 237 0.0 1.6 0.00 0.41 0.41 92 1011.2
20260505055533 7 165 0.0 1.6 0.00 0.41 0.41 92 1011.3
20260505055030 7 180 0.0 3.2 0.00 0.41 0.41 92 1011.2
20260505054527 7 188 3.2 3.2 0.00 0.41 0.41 92 1011.1
20260505054026 7 209 1.6 3.2 0.00 0.41 0.41 92 1011.5
20260505053522 7 187 3.2 4.8 0.00 0.41 0.41 92 1010.9
20260505053019 7 195 3.2 4.8 0.00 0.41 0.41 92 1011.3
20260505052516 7 180 3.2 4.8 0.00 0.41 0.41 92 1011.3
20260505052014 7 204 3.2 3.2 0.00 0.41 0.41 92 1011.5
20260505051510 7 187 1.6 3.2 0.00 0.41 0.41 92 1011.2
20260505051009 7 166 1.6 4.8 0.00 0.41 0.41 92 1011.5
20260505050506 7 210 3.2 6.4 0.00 0.41 0.41 92 1011.8
20260505041434 7 166 4.8 6.4 0.00 0.41 0.41 92 1012.0
20260505040931 7 192 3.2 3.2 0.00 0.41 0.41 92 1012.2
20260505040429 7 231 3.2 3.2 0.05 0.41 0.41 92 1012.2
20260505035925 7 169 1.6 3.2 0.13 0.38 0.38 91 1012.2
20260505035421 7 220 1.6 4.8 0.36 0.38 0.38 91 1011.8
20260505034919 7 247 3.2 4.8 0.36 0.36 0.36 91 1011.9
20260505034415 7 270 0.0 3.2 0.23 0.33 0.33 90 1011.8
20260505033912 7 110 3.2 3.2 0.23 0.30 0.30 89 1012.0
20260505033409 7 324 3.2 4.8 0.18 0.28 0.28 89 1011.9
20260505032907 7 353 0.0 4.8 0.13 0.25 0.25 89 1012.4
20260505032403 8 325 1.6 19.3 0.18 0.25 0.25 88 1011.9
20260505031900 8 351 6.4 12.9 0.23 0.23 0.23 87 1011.9
20260505031357 8 28 8.0 11.3 0.30 0.23 0.23 86 1011.6
20260505030854 9 265 6.4 11.3 0.30 0.20 0.20 83 1011.5
20260505030350 10 256 4.8 17.7 0.18 0.18 0.18 81 1011.2
20260505025845 10 18 0.0 8.0 0.05 0.15 0.15 78 1011.5
20260505025343 10 286 0.0 6.4 0.00 0.13 0.13 76 1010.9
20260505024842 10 345 0.0 6.4 0.00 0.13 0.13 75 1010.9
20260505024339 10 334 1.6 4.8 0.00 0.13 0.13 73 1010.7
20260505023836 10 322 3.2 8.0 0.00 0.13 0.13 72 1010.4
20260505023333 10 349 4.8 8.0 0.00 0.13 0.13 72 1010.6
20260505022830 10 259 3.2 9.7 0.00 0.13 0.13 71 1010.5
20260505022327 10 337 1.6 12.9 0.00 0.13 0.13 69 1010.2
20260505021825 11 3 4.8 12.9 0.00 0.13 0.13 68 1010.3
20260505021321 11 18 9.7 11.3 0.00 0.13 0.13 65 1009.9
20260505020817 11 351 9.7 16.1 0.00 0.13 0.13 63 1010.2
20260505020313 12 2 4.8 4.8 0.00 0.13 0.13 62 1010.0
20260505015810 12 74 0.0 1.6 0.00 0.13 0.13 61 1010.0
20260505015307 12 119 0.0 3.2 0.00 0.13 0.13 61 1009.9
20260505014804 12 160 0.0 4.8 0.00 0.13 0.13 60 1009.9
20260505014301 12 180 1.6 4.8 0.00 0.13 0.13 60 1009.8
20260505013757 12 154 4.8 4.8 0.00 0.13 0.13 60 1009.8
20260505013254 12 180 0.0 4.8 0.00 0.13 0.13 60 1009.4
20260505012753 12 172 0.0 3.2 0.00 0.13 0.13 59 1009.3
20260505012250 12 120 3.2 3.2 0.00 0.13 0.13 60 1009.8
20260505011745 12 143 3.2 4.8 0.00 0.13 0.13 60 1009.9
20260505011243 12 348 3.2 3.2 0.00 0.13 0.13 60 1009.7
20260505010738 12 28 4.8 6.4 0.00 0.13 0.13 60 1009.8
20260505010235 12 98 6.4 8.0 0.00 0.13 0.13 59 1009.7
20260505005731 12 103 3.2 8.0 0.00 0.13 0.13 60 1009.9
20260505005228 12 79 3.2 4.8 0.00 0.13 0.13 58 1009.6
20260505004726 12 151 4.8 8.0 0.00 0.13 0.13 59 1009.6
20260505004222 12 249 1.6 8.0 0.00 0.13 0.13 61 1009.7
20260505003719 12 188 3.2 16.1 0.00 0.13 0.13 60 1009.7
20260505003217 12 138 4.8 20.9 0.00 0.13 0.13 59 1009.4
20260505002713 13 154 6.4 9.7 0.00 0.13 0.13 54 1010.0
20260505002211 14 150 4.8 9.7 0.00 0.13 0.13 48 1010.3
20260505001708 14 157 0.0 9.7 0.00 0.13 0.13 53 1009.9
20260505001205 14 255 0.0 6.4 0.00 0.13 0.13 52 1010.0
20260505000702 14 90 0.0 4.8 0.00 0.13 0.13 50 1009.8
20260505000200 14 240 11.3 11.3 0.00 0.13 0.13 48 1009.7
20260504235656 15 254 3.2 6.4 0.00 0.13 0.13 48 1009.6
20260504235152 15 270 8.0 9.7 0.00 0.13 0.13 48 1009.4
20260504234650 15 262 3.2 9.7 0.00 0.13 0.13 48 1009.3
20260504234147 15 232 3.2 11.3 0.00 0.13 0.13 47 1009.1
20260504233643 15 292 0.0 16.1 0.00 0.13 0.13 47 1009.3
20260504233139 15 299 6.4 12.9 0.00 0.13 0.13 46 1009.1
20260504232637 15 0 6.4 11.3 0.00 0.13 0.13 46 1009.1
20260504232133 15 346 14.5 17.7 0.00 0.13 0.13 46 1009.0
20260504231630 15 304 6.4 17.7 0.00 0.13 0.13 46 1009.0
20260504231126 15 335 6.4 12.9 0.00 0.13 0.13 46 1008.6
20260504230623 15 356 8.0 14.5 0.00 0.13 0.13 46 1008.7
20260504230122 15 274 4.8 19.3 0.00 0.13 0.13 46 1008.6
20260504225619 15 347 8.0 27.4 0.00 0.13 0.13 46 1008.7
20260504225115 16 320 4.8 24.1 0.00 0.13 0.13 42 1008.9
20260504224612 16 59 9.7 16.1 0.00 0.13 0.13 40 1009.0
20260504224109 17 341 3.2 8.0 0.00 0.13 0.13 40 1009.0
20260504223606 16 11 9.7 16.1 0.00 0.13 0.13 41 1009.0
20260504223102 15 350 6.4 16.1 0.00 0.13 0.13 42 1009.0
20260504222559 15 307 6.4 17.7 0.00 0.13 0.13 44 1009.1
20260504222056 15 349 6.4 22.5 0.00 0.13 0.13 43 1009.1
20260504221553 16 351 11.3 12.9 0.00 0.13 0.13 42 1008.7
20260504221050 16 331 0.0 24.1 0.00 0.13 0.13 42 1008.9
20260504220547 16 22 4.8 16.1 0.00 0.13 0.13 41 1008.7
20260504220044 16 357 19.3 29.0 0.00 0.13 0.13 40 1008.6
20260504215540 16 23 12.9 20.9 0.00 0.13 0.13 40 1007.9
20260504215038 16 345 12.9 27.4 0.00 0.13 0.13 39 1008.3
20260504214533 16 339 8.0 27.4 0.00 0.13 0.13 39 1007.9
20260504214030 16 334 29.0 33.8 0.00 0.13 0.13 38 1007.8
20260504213526 18 327 6.4 16.1 0.00 0.13 0.13 31 1007.3
20260504213024 18 78 4.8 11.3 0.00 0.13 0.13 34 1007.2
20260504212519 20 117 4.8 4.8 0.00 0.13 0.13 31 1007.2
20260504212017 19 90 3.2 9.7 0.00 0.13 0.13 33 1007.6
20260504211514 19 107 3.2 8.0 0.00 0.13 0.13 33 1007.7
20260504211011 18 90 3.2 8.0 0.00 0.13 0.13 32 1007.4
20260504210508 18 90 3.2 11.3 0.00 0.13 0.13 33 1007.7
20260504210005 19 101 8.0 11.3 0.00 0.13 0.13 32 1007.9
20260504205502 20 90 0.0 6.4 0.00 0.13 0.13 32 1007.8
20260504205000 19 82 4.8 11.3 0.00 0.13 0.13 34 1007.8
20260504204458 20 90 4.8 9.7 0.00 0.13 0.13 34 1007.7
20260504203957 19 110 6.4 11.3 0.00 0.13 0.13 34 1008.1
20260504203455 18 78 4.8 16.1 0.00 0.13 0.13 34 1008.4
20260504202950 19 335 0.0 6.4 0.00 0.13 0.13 35 1008.4
20260504202447 17 334 0.0 8.0 0.00 0.13 0.13 35 1008.5
20260504201944 16 54 1.6 6.4 0.00 0.13 0.13 40 1008.7
20260504201441 16 40 8.0 14.5 0.00 0.13 0.13 37 1008.9
20260504200939 15 284 8.0 16.1 0.00 0.13 0.13 44 1009.0
20260504200435 15 280 3.2 6.4 0.00 0.13 0.13 52 1009.2
20260504195932 15 279 4.8 8.0 0.00 0.13 0.13 48 1009.0
20260504195428 15 39 4.8 12.9 0.00 0.13 0.13 44 1009.0
20260504194924 15 99 8.0 12.9 0.00 0.13 0.13 45 1008.7
20260504194420 15 92 8.0 14.5 0.00 0.13 0.13 50 1008.7
20260504193916 14 90 11.3 12.9 0.00 0.13 0.13 56 1009.0
20260504193414 14 94 4.8 9.7 0.00 0.13 0.13 54 1009.2
20260504192913 14 110 3.2 8.0 0.00 0.13 0.13 51 1009.1
20260504192409 13 78 1.6 11.3 0.05 0.13 0.13 61 1009.4
20260504191908 13 74 0.0 3.2 0.23 0.13 0.13 68 1009.2
20260504191406 12 239 3.2 8.0 0.48 0.10 0.10 63 1009.3
20260504190901 13 172 6.4 17.7 0.36 0.05 0.05 59 1009.1
20260504190357 14 106 11.3 25.7 0.18 0.03 0.03 51 1008.9
20260504185854 16 137 14.5 30.6 0.00 0.00 0.00 45 1008.6
20260504185351 18 90 12.9 25.7 0.00 0.00 0.00 33 1008.1
20260504184847 18 90 9.7 9.7 0.00 0.00 0.00 27 1007.9
20260504184343 18 135 8.0 11.3 0.00 0.00 0.00 26 1008.0
20260504183839 19 100 6.4 8.0 0.00 0.00 0.00 27 1007.9
20260504183337 19 80 3.2 11.3 0.00 0.00 0.00 26 1007.7
20260504182834 20 5 1.6 6.4 0.00 0.00 0.00 26 1007.7
20260504182331 20 3 4.8 9.7 0.00 0.00 0.00 26 1007.8
20260504181828 20 55 0.0 8.0 0.00 0.00 0.00 26 1007.7
20260504181325 20 23 0.0 9.7 0.00 0.00 0.00 25 1007.7
20260504180824 20 21 4.8 16.1 0.00 0.00 0.00 26 1007.6
20260504180322 20 17 6.4 12.9 0.00 0.00 0.00 25 1007.7
20260504175820 20 16 4.8 22.5 0.00 0.00 0.00 26 1007.7
20260504175316 21 103 1.6 17.7 0.00 0.00 0.00 26 1007.8
20260504174815 21 1 8.0 12.9 0.00 0.00 0.00 25 1007.8
20260504174312 21 94 4.8 4.8 0.00 0.00 0.00 27 1007.9
20260504173809 21 126 9.7 11.3 0.00 0.00 0.00 26 1008.1
20260504173305 23 2 4.8 6.4 0.00 0.00 0.00 24 1008.3
20260504172803 22 67 4.8 8.0 0.00 0.00 0.00 25 1008.3
20260504172259 21 117 1.6 9.7 0.00 0.00 0.00 26 1008.3
20260504171755 21 81 8.0 12.9 0.00 0.00 0.00 26 1008.6
20260504171252 21 82 0.0 12.9 0.00 0.00 0.00 27 1008.5
20260504170749 20 81 3.2 8.0 0.00 0.00 0.00 27 1008.4
20260504170246 20 354 6.4 14.5 0.00 0.00 0.00 27 1008.7
20260504160205 18 244 8.0 14.5 0.00 0.00 0.00 29 1009.2
20260504151133 17 270 4.8 9.7 0.00 0.00 0.00 29 1009.6
20260504150630 17 266 3.2 17.7 0.00 0.00 0.00 29 1009.6
20260504150127 16 243 4.8 20.9 0.00 0.00 0.00 29 1009.6
20260504141055 15 239 6.4 22.5 0.00 0.00 0.00 28 1009.7
20260504140552 15 273 4.8 12.9 0.00 0.00 0.00 28 1009.4
20260504130516 11 151 4.8 6.4 0.00 0.00 0.00 37 1009.6
20260504110403 7 192 0.0 3.2 0.00 0.00 0.00 47 1009.6